Weather History for Baraboo, WI

Change the Weather History Date:

Wednesday, November 21, 2012

  Actual Average Record
Temperature  
Mean Temperature 46 °F -  
Max Temperature 59 °F 39 °F 65 °F (1990)
Min Temperature 32 °F 21 °F 3 °F (1964)
Degree Days  
Heating Degree Days 20    
Moisture  
Dew Point 37 °F    
Average Humidity 78    
Maximum Humidity 100    
Minimum Humidity 48    
Precipitation  
Precipitation 0.00 in - - ()
Sea Level Pressure  
Sea Level Pressure 30.05 in    
Wind  
Wind Speed 6 mph (SSW)    
Max Wind Speed 18 mph    
Max Gust Speed 24 mph    
Visibility 6 miles    
Events Fog    
Averages and records for this station are not official NWS values.
T = Trace of Precipitation, MM = Missing Value Source: NWS Daily Summary

Daily Weather History Graph

Daily Weather History Graph

Search for Another Location

Airport:

Trip Planner

Search our weather history database for the weather conditions in past years. The results will help you decide how hot, cold, wet, or windy it might be!

Date:

Astronomy

Nov. 21, 2012 Rise Set
Actual Time 7:01 AM CST 4:28 PM CST
Civil Twilight 6:29 AM CST 5:00 PM CST
Nautical Twilight 5:54 AM CST 5:35 PM CST
Astronomical Twilight 5:20 AM CST 6:09 PM CST
Moon 12:55 PM CST (11/21) 12:08 AM CST (11/21)
Length of Visible Light 10h 30m
Length of Day
9h 27m
First Quarter, 62% of the Moon is Illuminated
Nov 21
First Quarter
Nov 28
Full
Dec 6
Last Quarter
Dec 13
New
Dec 19
First Quarter

Hourly Weather History & Observations

Time (CST) Temp. Windchill Dew Point Humidity Pressure Visibility Wind Dir Wind Speed Gust Speed Precip Events Conditions
12:15 AM 33.8 °F - 32.0 °F 93% 30.14 in 0.2 mi Calm Calm - N/A Fog Fog
12:35 AM 32.0 °F 28.7 °F 32.0 °F 100% 30.14 in 0.2 mi West 3.5 mph - N/A Fog Fog
12:55 AM 32.0 °F - 32.0 °F 100% 30.14 in 0.2 mi Calm Calm - N/A Fog Fog
1:15 AM 32.0 °F 28.7 °F 32.0 °F 100% 30.14 in 0.2 mi West 3.5 mph - N/A Fog Fog
1:35 AM 32.0 °F - 32.0 °F 100% 30.14 in 0.2 mi Calm Calm - N/A Fog Fog
1:55 AM 33.8 °F 30.8 °F 33.8 °F 100% 30.14 in 0.2 mi South 3.5 mph - N/A Fog Fog
2:15 AM 33.8 °F 30.8 °F 33.8 °F 100% 30.14 in 0.2 mi WSW 3.5 mph - N/A Fog Fog
2:35 AM 33.8 °F 28.6 °F 33.8 °F 100% 30.14 in 0.2 mi SW 5.8 mph - N/A Fog Fog
2:55 AM 33.8 °F 28.6 °F 33.8 °F 100% 30.13 in 0.2 mi South 5.8 mph - N/A Fog Fog
3:15 AM 33.8 °F 30.8 °F 32.0 °F 93% 30.13 in 0.2 mi SSW 3.5 mph - N/A   Overcast
3:35 AM 33.8 °F 30.8 °F 32.0 °F 93% 30.13 in 0.2 mi SW 3.5 mph - N/A   Overcast
3:55 AM 33.8 °F - 32.0 °F 93% 30.15 in 0.2 mi Calm Calm - N/A   Overcast
4:15 AM 32.0 °F - 32.0 °F 100% 30.15 in 0.2 mi Calm Calm - N/A Fog Fog
4:35 AM 33.8 °F 30.8 °F 32.0 °F 93% 30.15 in 0.2 mi SSE 3.5 mph - N/A Fog Fog
4:55 AM 33.8 °F - 32.0 °F 93% 30.15 in 0.2 mi Calm Calm - N/A Fog Fog
5:15 AM 33.8 °F 30.8 °F 32.0 °F 93% 30.14 in 0.2 mi South 3.5 mph - N/A Fog Fog
5:35 AM 32.0 °F - 32.0 °F 100% 30.14 in 0.2 mi Calm Calm - N/A   Overcast
5:55 AM 32.0 °F - 32.0 °F 100% 30.14 in 0.2 mi Calm Calm - N/A Fog Fog
6:15 AM 32.0 °F - 32.0 °F 100% 30.14 in 0.2 mi Calm Calm - N/A Fog Fog
6:35 AM 32.0 °F 28.7 °F 32.0 °F 100% 30.14 in 0.2 mi South 3.5 mph - N/A Fog Fog
6:55 AM 32.0 °F 28.7 °F 32.0 °F 100% 30.13 in 0.2 mi South 3.5 mph - N/A   Light Drizzle
7:15 AM 32.0 °F 26.4 °F 32.0 °F 100% 30.12 in 0.2 mi South 5.8 mph - N/A   Overcast
7:35 AM 32.0 °F 27.5 °F 32.0 °F 100% 30.13 in 0.2 mi SSW 4.6 mph - N/A   Overcast
7:55 AM 33.8 °F - 33.8 °F 100% 30.13 in 1.2 mi Calm Calm - N/A   Scattered Clouds
8:15 AM 35.6 °F - 35.6 °F 100% 30.13 in 1.8 mi Calm Calm - N/A   Mist
8:35 AM 37.4 °F 32.1 °F 37.4 °F 100% 30.13 in 4.0 mi SW 6.9 mph - N/A   Clear
8:55 AM 39.2 °F 33.6 °F 37.4 °F 93% 30.13 in 4.0 mi SSW 8.1 mph - N/A   Clear
9:15 AM 39.2 °F 37.0 °F 37.4 °F 93% 30.12 in 4.0 mi SSW 3.5 mph - N/A   Clear
9:35 AM 41.0 °F 35.8 °F 41.0 °F 100% 30.12 in 5.0 mi SSW 8.1 mph - N/A   Clear
9:55 AM 42.8 °F 38.0 °F 41.0 °F 93% 30.12 in 7.0 mi South 8.1 mph - N/A   Clear
10:15 AM 42.8 °F 37.5 °F 42.8 °F 100% 30.11 in 10.0 mi South 9.2 mph - N/A   Clear
10:55 AM 46.4 °F 41.9 °F 37.4 °F 71% 30.10 in 10.0 mi SSW 9.2 mph - N/A   Clear
11:15 AM 50.0 °F - 37.4 °F 62% 30.08 in 10.0 mi SSW 10.4 mph - N/A   Clear
11:35 AM 50.0 °F - 37.4 °F 62% 30.07 in 10.0 mi SSW 13.8 mph - N/A   Clear
11:55 AM 53.6 °F - 37.4 °F 54% 30.06 in 10.0 mi South 13.8 mph - N/A   Clear
12:15 PM 53.6 °F - 37.4 °F 54% 30.05 in 10.0 mi SSW 15.0 mph - N/A   Clear
12:35 PM 53.6 °F - 39.2 °F 58% 30.04 in 10.0 mi SSW 11.5 mph - N/A   Clear
12:55 PM 53.6 °F - 39.2 °F 58% 30.03 in 10.0 mi SSW 15.0 mph 19.6 mph N/A   Clear
1:15 PM 55.4 °F - 39.2 °F 54% 30.02 in 10.0 mi SSW 12.7 mph 20.7 mph N/A   Clear
1:35 PM 55.4 °F - 39.2 °F 54% 30.02 in 10.0 mi SSW 15.0 mph - N/A   Clear
2:15 PM 57.2 °F - 39.2 °F 51% 30.00 in 10.0 mi SSW 12.7 mph - N/A   Clear
2:35 PM 57.2 °F - 39.2 °F 51% 29.99 in 10.0 mi South 16.1 mph - N/A   Clear
2:55 PM 59.0 °F - 39.2 °F 48% 29.99 in 10.0 mi SSW 12.7 mph - N/A   Clear
3:15 PM 57.2 °F - 37.4 °F 48% 29.98 in 10.0 mi SSW 15.0 mph 19.6 mph N/A   Clear
3:35 PM 57.2 °F - 39.2 °F 51% 29.99 in 10.0 mi SSW 15.0 mph 19.6 mph N/A   Clear
3:55 PM 55.4 °F - 39.2 °F 54% 29.98 in 10.0 mi SSW 12.7 mph 17.3 mph N/A   Clear
4:15 PM 55.4 °F - 39.2 °F 54% 29.98 in 10.0 mi SSW 11.5 mph 24.2 mph N/A   Clear
4:35 PM 53.6 °F - 39.2 °F 58% 29.98 in 10.0 mi SSW 13.8 mph - N/A   Clear
4:55 PM 53.6 °F - 39.2 °F 58% 29.98 in 10.0 mi SSW 15.0 mph 24.2 mph N/A   Clear
5:15 PM 53.6 °F - 39.2 °F 58% 29.98 in 10.0 mi SSW 15.0 mph - N/A   Clear
5:35 PM 51.8 °F - 41.0 °F 67% 29.98 in 10.0 mi SSW 13.8 mph 19.6 mph N/A   Clear
5:55 PM 51.8 °F - 41.0 °F 67% 29.99 in 10.0 mi SSW 15.0 mph 20.7 mph N/A   Clear
6:15 PM 51.8 °F - 41.0 °F 67% 29.98 in 10.0 mi SSW 16.1 mph 19.6 mph N/A   Clear
6:35 PM 51.8 °F - 41.0 °F 67% 29.98 in 7.0 mi SSW 16.1 mph 20.7 mph N/A   Clear
6:55 PM 51.8 °F - 41.0 °F 67% 29.97 in 7.0 mi SSW 17.3 mph 23.0 mph N/A   Clear
7:15 PM 51.8 °F - 41.0 °F 67% 29.97 in 10.0 mi SSW 18.4 mph 24.2 mph N/A   Clear
7:35 PM 51.8 °F - 41.0 °F 67% 29.97 in 10.0 mi SSW 16.1 mph - N/A   Clear
7:55 PM 51.8 °F - 41.0 °F 67% 29.97 in 10.0 mi SSW 16.1 mph 21.9 mph N/A   Clear
8:15 PM 51.8 °F - 41.0 °F 67% 29.96 in 10.0 mi SSW 15.0 mph - N/A   Clear
8:35 PM 50.0 °F - 41.0 °F 71% 29.96 in 10.0 mi SSW 13.8 mph - N/A   Clear
8:55 PM 50.0 °F - 41.0 °F 71% 29.97 in 10.0 mi SSW 15.0 mph 20.7 mph N/A   Clear
9:15 PM 50.0 °F - 41.0 °F 71% 29.97 in 10.0 mi SSW 16.1 mph 23.0 mph N/A   Clear
9:35 PM 51.8 °F - 41.0 °F 67% 29.96 in 10.0 mi SSW 16.1 mph 23.0 mph N/A   Clear
9:55 PM 50.0 °F - 41.0 °F 71% 29.96 in 10.0 mi SSW 15.0 mph - N/A   Clear
10:15 PM 50.0 °F - 41.0 °F 71% 29.96 in 10.0 mi SSW 13.8 mph 18.4 mph N/A   Clear
10:35 PM 50.0 °F - 41.0 °F 71% 29.96 in 10.0 mi SW 13.8 mph - N/A   Clear
10:55 PM 50.0 °F - 41.0 °F 71% 29.96 in 10.0 mi SSW 16.1 mph 23.0 mph N/A   Clear
11:15 PM 50.0 °F - 41.0 °F 71% 29.96 in 10.0 mi SSW 15.0 mph 23.0 mph N/A   Clear
11:35 PM 48.2 °F - 41.0 °F 76% 29.96 in 10.0 mi SSW 13.8 mph - N/A   Clear
11:55 PM 48.2 °F - 41.0 °F 76% 29.95 in 10.0 mi SSW 10.4 mph - N/A   Clear